Diretta Meteo Nizza, Franciagiovedì 19 aprile ore 18:30

Mappa
Sereno 21 °C Sereno 24 Ore: T.min 15 T.max 23
Ponente Sud Km/h 7.4 Punto di rugiada: 8 °C Umidità: 43% Visibilità: 10 Km
Il sole sorge alle: 06:39 Il sole tramonta alle: 20:20
19 Aprile 2018 18:30 tempo osservato: Sereno Sereno 21 43 1024 vento: Nord S 7.4
19 Aprile 2018 18:00 tempo osservato: Sereno Sereno 22 37 1024 vento: Nord S 7.4
19 Aprile 2018 16:30 tempo osservato: Sereno Sereno 23 38 1025 vento: Nord N 1.8
19 Aprile 2018 16:00 tempo osservato: Sereno Sereno 22 37 1025 vento: Nord N 3.7
19 Aprile 2018 15:30 tempo osservato: Sereno Sereno 21 49 1025 vento: Nord S/SO 7.4
19 Aprile 2018 15:00 tempo osservato: Sereno Sereno 21 49 1026 vento: Nord S/SO 9.3
19 Aprile 2018 14:30 tempo osservato: Sereno Sereno 21 46 1026 vento: Nord S 7.4
19 Aprile 2018 14:00 tempo osservato: Sereno Sereno 21 52 1026 vento: Nord N 5.5
19 Aprile 2018 13:30 tempo osservato: Sereno Sereno 21 49 1026 vento: Nord N 5.5
19 Aprile 2018 13:00 tempo osservato: Sereno Sereno 20 59 1026 vento: Nord S 9.3
19 Aprile 2018 12:30 tempo osservato: Sereno Sereno 20 59 1026 vento: Nord S 14.8
19 Aprile 2018 12:00 tempo osservato: Sereno Sereno 21 43 1026 vento: Nord S 13
19 Aprile 2018 11:30 tempo osservato: Sereno Sereno 22 37 1026 vento: Nord O/SO 9.3
19 Aprile 2018 10:30 tempo osservato: Sereno Sereno 21 37 1026 vento: Nord N 3.7
19 Aprile 2018 10:00 tempo osservato: Sereno Sereno 20 42 1026 vento: Nord NO 13
19 Aprile 2018 09:30 tempo osservato: Sereno Sereno 19 45 1026 vento: Nord N/NO 13
19 Aprile 2018 09:00 tempo osservato: Sereno Sereno 18 45 1026 vento: Nord N/NO 14.8
19 Aprile 2018 08:30 tempo osservato: Sereno Sereno 17 48 1026 vento: Nord N/NO 16.7
19 Aprile 2018 08:00 tempo osservato: Sereno Sereno 16 51 1026 vento: Nord N/NO 16.7
19 Aprile 2018 07:30 tempo osservato: Sereno Sereno 15 54 1025 vento: Nord N/NO 20.3
19 Aprile 2018 07:00 tempo osservato: Sereno Sereno 15 54 1025 vento: Nord N/NO 16.7
19 Aprile 2018 06:30 tempo osservato: Sereno Sereno 15 54 1025 vento: Nord N/NO 18.5
19 Aprile 2018 06:00 tempo osservato: Sereno Sereno 15 54 1025 vento: Nord N/NO 16.7
19 Aprile 2018 05:30 tempo osservato: Sereno Sereno 15 58 1026 vento: Nord N/NO 14.8
19 Aprile 2018 05:00 tempo osservato: Sereno Sereno 16 55 1026 vento: Nord N/NO 16.7
19 Aprile 2018 04:30 tempo osservato: Sereno Sereno 16 55 1026 vento: Nord N/NO 18.5
19 Aprile 2018 04:00 tempo osservato: Sereno Sereno 16 55 1026 vento: Nord N/NO 14.8
19 Aprile 2018 03:30 tempo osservato: Sereno Sereno 16 58 1026 vento: Nord N/NO 16.7
19 Aprile 2018 03:00 tempo osservato: Sereno Sereno 16 58 1026 vento: Nord N/NO 14.8
19 Aprile 2018 02:30 tempo osservato: Sereno Sereno 16 58 1027 vento: Nord N/NO 16.7
19 Aprile 2018 02:00 tempo osservato: Sereno Sereno 17 55 1027 vento: Nord N/NO 14.8
19 Aprile 2018 01:30 tempo osservato: Sereno Sereno 17 55 1027 vento: Nord N/NO 14.8
19 Aprile 2018 01:00 tempo osservato: Sereno Sereno 17 55 1027 vento: Nord N/NO 13
19 Aprile 2018 00:30 tempo osservato: Sereno Sereno 17 59 1026 vento: Nord N/NO 16.7
19 Aprile 2018 00:00 tempo osservato: Sereno Sereno 17 59 1026 vento: Nord N 13
18 Aprile 2018 23:30 tempo osservato: Sereno Sereno 18 55 1026 vento: Nord N/NO 14.8
18 Aprile 2018 23:00 tempo osservato: Sereno Sereno 18 55 1026 vento: Nord N/NO 7.4
18 Aprile 2018 22:30 tempo osservato: Sereno Sereno 18 55 1026 vento: Nord N/NO 7.4
18 Aprile 2018 22:00 tempo osservato: Sereno Sereno 18 59 1026 vento: Nord N 0
18 Aprile 2018 21:30 tempo osservato: Sereno Sereno 19 48 1026 vento: Nord N 0
18 Aprile 2018 21:00 tempo osservato: Sereno Sereno 19 52 1026 vento: Nord N 5.5
18 Aprile 2018 20:30 tempo osservato: Sereno Sereno 19 52 1025 vento: Nord N 5.5
18 Aprile 2018 20:00 tempo osservato: Sereno Sereno 19 55 1025 vento: Nord S/SO 9.3